Wind_Speed
71 68 67 60 65 65 57 67 56 55 60 56 52 50 55 54 56 56 59 47 43 39 38 36 31 30 37 38 39 39 39 39 40 41 42 48 53 58 63 69 73 73 74
65 76 75 73 61 51 50 50 56 64 52 45 41 49 49 40 49 55 64 43 36 39 42 41 27 31 36 36 37 37 37 38 40 41 47 51 57 64 68 75 80 81 81
71 70 63 57 49 44 35 42 51 48 41 30 36 40 47 39 46 47 45 31 29 32 41 25 27 33 32 35 35 35 37 40 38 44 50 56 61 66 73 82 86 85 86
56 55 53 41 45 37 38 41 31 38 37 40 40 44 48 40 39 38 36 25 26 38 42 21 31 29 33 34 33 35 38 38 42 47 53 58 65 71 82 87 85 81 64
58 42 45 47 46 38 35 31 32 31 40 47 48 47 42 41 45 34 25 28 30 29 18 27 29 30 30 30 32 35 37 39 44 50 55 61 68 78 87 82 72 54 47
46 40 40 41 34 32 32 34 36 39 25 19 43 41 46 51 49 53 41 32 36 20 21 25 29 27 27 28 32 33 36 41 45 52 57 64 73 84 82 66 49 39 38
49 43 45 43 38 37 39 41 39 44 48 32 43 42 34 39 39 41 36 35 34 17 24 27 30 23 25 27 28 33 38 41 46 52 58 66 78 81 65 44 41 41 40
33 34 34 33 34 35 32 33 34 40 38 34 34 35 34 38 40 32 32 16 15 19 28 27 21 23 25 25 30 34 38 43 48 56 61 67 79 69 44 37 38 39 41
39 37 39 37 36 34 32 19 20 30 29 23 30 33 37 36 29 12 10 11 17 24 25 22 21 24 23 27 30 34 40 45 52 56 62 70 73 55 34 38 37 38 35
35 38 42 37 36 32 21 21 23 31 33 24 26 39 40 33 12 19 10 15 24 20 20 20 21 20 24 28 33 38 43 48 53 59 64 69 61 38 35 37 36 37 31
29 31 31 31 30 27 30 31 27 28 32 41 30 35 37 30 21 7 13 22 19 19 19 20 19 21 26 30 34 39 44 49 53 57 67 62 48 30 35 38 37 34 29
28 30 31 32 32 34 31 23 21 32 31 33 27 28 19 10 7 17 18 16 16 16 19 17 19 24 27 32 37 42 47 51 55 60 67 54 35 32 35 36 36 34 29
31 30 28 24 28 25 24 34 32 30 34 41 25 17 10 12 17 14 14 14 15 17 16 16 21 26 30 35 40 44 47 52 57 61 59 46 28 29 32 32 36 35 28
34 32 28 27 30 26 36 25 28 30 30 26 15 10 15 15 12 12 13 14 16 15 14 18 23 29 32 37 41 46 51 53 58 59 50 39 25 25 29 30 30 34 32
36 28 30 28 27 38 32 30 31 28 20 13 15 16 14 12 10 11 14 12 14 15 17 22 27 30 34 40 43 48 51 53 58 53 43 34 24 22 26 27 28 32 32
31 37 38 43 38 32 37 32 23 16 18 20 18 14 11 9 10 11 12 12 15 15 19 24 29 31 37 42 45 49 50 55 55 47 37 28 21 19 22 26 25 29 31
36 34 38 32 38 36 26 20 21 21 18 16 13 9 9 9 10 11 12 14 15 17 22 26 30 34 39 42 46 48 52 57 52 43 31 24 19 15 18 25 23 28 32
31 34 33 30 19 23 25 22 21 18 17 13 11 10 9 9 8 11 13 14 16 20 24 29 31 36 39 44 47 50 55 57 47 37 25 20 19 13 14 21 22 25 29
28 25 30 28 26 19 19 18 17 16 14 13 11 9 7 8 10 13 14 16 20 22 27 30 33 37 39 44 47 51 55 51 39 31 20 17 19 12 11 16 22 24 27
24 22 26 18 17 18 17 17 16 15 14 11 8 8 8 9 11 14 16 19 20 23 27 30 34 37 41 45 48 52 50 40 35 23 17 15 16 10 8 15 21 21 24
24 20 17 19 18 18 18 14 14 12 10 10 9 8 10 11 13 15 19 20 22 24 27 31 35 39 42 46 49 49 41 33 27 17 16 13 15 9 6 12 18 20 23
18 21 18 19 17 15 14 13 14 14 12 11 9 10 12 13 15 17 18 21 22 25 29 34 39 41 43 46 46 42 34 28 23 16 16 13 15 8 4 9 15 18 21
14 21 22 19 18 16 15 15 15 13 12 12 11 12 12 13 15 16 19 21 24 28 32 37 40 42 43 44 40 34 28 24 20 16 14 13 13 8 4 6 11 16 18
22 27 24 21 19 18 17 16 15 14 14 14 12 12 13 14 16 18 20 22 26 30 34 38 39 40 42 38 34 29 25 22 18 15 13 12 10 10 3 2 6 12 15
25 31 27 26 23 22 19 17 16 15 15 14 13 14 15 14 16 18 22 25 29 33 37 38 39 40 37 32 29 25 23 21 18 15 11 9 8 10 5 1 3 6 11
25 29 28 32 28 24 20 19 16 16 17 15 13 14 14 15 17 19 22 27 32 36 38 37 38 35 30 27 25 23 22 20 17 15 12 8 7 7 8 2 3 4 7
Wind_Direction
204 218 213 214 222 231 233 236 231 239 251 257 255 246 245 248 254 257 263 264 267 281 289 283 290 295 298 302 306 311 315 317 320 322 320 321 323 321 320 318 314 311 308
205 210 220 213 217 227 226 228 237 240 254 246 250 252 250 259 261 268 259 263 270 282 285 281 282 295 299 304 310 314 313 318 320 318 320 323 321 320 320 319 315 312 309
210 211 223 211 213 221 233 243 247 242 244 255 256 255 255 266 266 242 248 256 275 284 291 281 293 295 304 308 310 311 317 320 315 319 323 325 320 321 321 318 317 313 313
206 213 208 214 215 218 223 223 237 244 235 257 255 251 257 250 245 240 251 263 278 287 293 292 291 305 306 308 312 318 318 318 319 324 325 326 324 321 320 321 318 322 329
200 204 207 212 211 208 214 235 248 255 255 256 257 251 238 245 254 251 256 275 284 292 287 290 297 300 303 310 318 319 319 323 324 324 326 328 323 326 326 324 327 336 342
212 199 196 204 202 216 225 236 246 249 248 236 242 246 243 250 252 256 272 287 289 285 286 290 293 302 308 316 317 319 321 324 324 326 328 330 329 328 328 330 338 345 344
189 192 193 205 210 219 231 241 251 254 258 248 237 241 242 237 246 259 269 278 285 278 286 290 290 304 311 318 319 322 322 320 325 327 331 332 332 332 331 338 343 343 345
196 208 212 214 226 231 237 248 255 263 262 256 247 242 253 259 259 266 269 251 250 282 281 285 297 309 314 317 323 322 320 325 327 332 334 333 335 333 337 340 344 345 342
201 207 215 219 230 234 238 263 272 267 248 258 252 252 263 247 262 242 239 245 269 274 282 288 305 312 317 321 317 319 326 329 333 336 336 336 339 335 340 342 346 346 350
203 212 219 227 229 227 256 277 270 264 235 262 295 254 249 247 210 222 221 266 268 276 282 301 306 312 321 317 320 328 330 334 336 339 338 340 339 340 342 345 345 349 355
215 217 217 223 237 250 259 266 275 253 252 263 281 258 251 243 229 199 254 261 271 278 293 300 307 317 315 316 326 328 332 335 337 340 342 343 337 341 341 342 346 350 355
237 236 237 237 245 256 262 259 266 256 271 264 235 227 186 159 217 239 246 258 272 289 296 304 315 311 313 324 325 330 334 337 340 344 344 341 336 339 341 342 348 351 357
237 236 235 237 244 259 243 229 239 260 251 235 205 157 165 215 229 237 250 269 290 291 297 309 308 314 321 326 329 334 338 339 342 344 343 336 335 339 343 345 351 355 359
221 221 227 234 236 222 214 231 247 224 197 164 140 180 211 213 226 245 268 277 285 296 301 308 313 320 324 328 332 340 341 340 340 342 337 335 335 338 347 345 351 355 0
224 208 207 207 227 200 217 228 192 157 142 154 185 193 202 216 235 258 272 288 299 300 305 312 318 320 328 331 337 340 339 340 341 340 333 331 332 334 343 346 350 358 4
181 182 182 183 200 187 176 156 144 152 173 181 184 190 203 228 256 274 287 302 303 303 307 312 317 325 330 335 339 337 338 340 341 334 328 328 332 332 340 346 350 1 4
166 156 173 169 162 156 143 151 167 176 176 183 182 192 219 247 271 293 302 302 300 300 303 317 322 330 330 338 338 337 339 341 341 333 325 326 330 327 339 349 353 360 3
162 163 172 155 151 171 162 170 173 177 182 181 186 214 239 266 288 296 300 299 296 299 322 322 327 329 334 337 338 340 341 343 339 330 321 328 331 323 339 355 358 1 5
171 166 172 178 156 153 170 172 173 177 185 198 207 223 258 287 297 300 299 300 306 317 320 327 327 330 336 338 340 340 343 343 336 330 327 333 331 323 342 358 4 8 12
165 172 165 160 167 171 172 176 183 190 200 209 220 240 267 280 291 296 299 308 313 317 325 323 328 335 339 339 340 342 343 341 339 334 335 338 336 323 348 6 8 12 20
143 155 160 180 181 185 191 194 190 197 213 221 231 255 276 285 291 298 304 306 311 321 323 329 334 339 339 341 341 343 342 341 343 339 343 343 348 331 352 14 14 19 24
188 182 200 192 193 198 204 210 218 219 223 227 239 260 270 281 293 299 304 311 319 324 329 334 337 339 339 339 343 342 340 340 340 339 345 344 352 340 350 24 20 24 26
199 206 200 198 205 210 217 226 218 215 221 233 246 261 274 286 294 304 310 317 326 330 332 335 337 336 337 340 342 340 338 336 337 335 339 344 350 356 4 32 26 27 28
243 218 209 208 215 219 219 212 212 218 230 239 254 274 282 288 298 308 314 323 330 331 334 335 335 336 338 342 340 340 337 332 337 334 332 340 345 6 21 53 35 26 31
230 208 206 220 221 215 211 213 216 225 235 248 261 274 281 295 307 312 321 329 332 334 335 335 335 338 341 340 339 339 339 338 339 336 331 332 344 4 18 98 86 39 35
227 231 233 217 216 214 213 217 219 227 239 254 268 272 286 303 307 317 325 329 333 336 335 334 336 338 339 339 338 338 336 340 339 337 334 333 350 4 15 16 128 84 46
Height
5709 5720 5731 5740 5749 5756 5768 5770 5776 5780 5783 5782 5783 5784 5784 5785 5786 5787 5787 5786 5787 5786 5785 5783 5780 5777 5774 5769 5764 5758 5751 5743 5735 5727 5719 5713 5704 5692 5678 5665 5652 5638 5624
5706 5713 5724 5734 5743 5755 5759 5765 5768 5773 5772 5772 5773 5772 5775 5777 5777 5779 5775 5780 5779 5778 5777 5776 5773 5771 5767 5762 5756 5750 5742 5735 5728 5720 5713 5704 5693 5681 5666 5652 5637 5621 5605
5700 5706 5717 5725 5736 5746 5752 5756 5761 5762 5760 5762 5766 5767 5767 5767 5767 5766 5769 5770 5769 5772 5769 5765 5767 5764 5759 5755 5749 5743 5737 5729 5720 5713 5706 5696 5684 5670 5655 5634 5618 5600 5582
5696 5706 5716 5724 5733 5740 5746 5750 5753 5750 5743 5756 5758 5757 5758 5758 5761 5762 5759 5760 5763 5764 5763 5763 5761 5755 5752 5748 5743 5736 5729 5722 5715 5707 5698 5687 5674 5659 5642 5622 5601 5580 5570
5693 5706 5713 5722 5728 5735 5741 5744 5747 5747 5748 5749 5748 5750 5750 5752 5756 5755 5754 5754 5756 5757 5757 5758 5754 5748 5744 5740 5735 5729 5724 5717 5710 5701 5691 5679 5665 5646 5627 5606 5588 5574 5561
5691 5704 5711 5715 5719 5728 5733 5738 5739 5739 5739 5739 5740 5739 5745 5749 5748 5748 5748 5749 5750 5752 5754 5753 5748 5742 5740 5734 5730 5725 5719 5712 5704 5695 5685 5670 5652 5633 5611 5595 5585 5575 5566
5688 5696 5703 5710 5716 5722 5728 5730 5732 5732 5733 5738 5737 5738 5740 5741 5741 5742 5744 5745 5749 5750 5750 5746 5743 5738 5735 5729 5725 5720 5714 5707 5697 5687 5675 5662 5642 5623 5607 5595 5583 5573 5562
5684 5690 5697 5704 5710 5716 5722 5725 5727 5726 5728 5728 5731 5732 5735 5736 5735 5737 5739 5742 5745 5746 5744 5740 5737 5732 5728 5724 5719 5714 5709 5699 5690 5680 5667 5653 5636 5615 5601 5593 5584 5573 5562
5680 5687 5692 5697 5703 5709 5715 5719 5721 5722 5725 5725 5728 5729 5729 5729 5730 5732 5738 5739 5743 5740 5738 5735 5730 5728 5723 5719 5715 5710 5701 5692 5683 5672 5660 5645 5627 5610 5601 5591 5581 5573 5563
5675 5681 5687 5694 5699 5705 5709 5712 5716 5718 5720 5722 5721 5721 5722 5725 5728 5733 5733 5738 5737 5733 5731 5730 5726 5722 5718 5716 5712 5704 5694 5684 5674 5662 5651 5637 5620 5607 5599 5589 5580 5570 5562
5673 5680 5686 5692 5695 5700 5704 5707 5711 5712 5716 5716 5716 5717 5720 5720 5725 5728 5733 5734 5731 5730 5728 5724 5722 5717 5715 5713 5705 5696 5687 5677 5667 5656 5643 5628 5614 5605 5596 5588 5579 5570 5560
5669 5675 5680 5685 5690 5694 5699 5702 5705 5708 5710 5711 5710 5713 5715 5720 5724 5728 5729 5728 5727 5724 5723 5721 5718 5716 5712 5705 5699 5690 5681 5670 5660 5649 5637 5622 5609 5602 5595 5588 5578 5570 5561
5664 5669 5673 5680 5684 5687 5691 5697 5700 5703 5703 5705 5707 5712 5716 5720 5723 5724 5724 5723 5722 5722 5719 5716 5715 5712 5707 5701 5693 5685 5672 5663 5653 5643 5631 5617 5609 5601 5595 5585 5577 5569 5561
5659 5664 5668 5675 5679 5684 5684 5688 5692 5696 5698 5704 5707 5712 5716 5718 5719 5719 5719 5719 5719 5717 5715 5714 5711 5707 5701 5694 5686 5676 5668 5658 5648 5636 5623 5613 5607 5601 5594 5587 5579 5571 5560
5649 5656 5664 5671 5674 5675 5679 5685 5690 5692 5697 5702 5705 5709 5712 5714 5714 5716 5719 5715 5715 5714 5713 5710 5707 5703 5695 5688 5677 5670 5662 5651 5641 5628 5617 5609 5603 5599 5594 5588 5580 5571 5562
5647 5653 5660 5664 5669 5672 5677 5681 5686 5692 5696 5700 5703 5707 5709 5711 5714 5715 5714 5711 5711 5710 5709 5706 5702 5695 5687 5680 5671 5666 5656 5645 5633 5621 5614 5607 5601 5598 5593 5587 5579 5571 5564
5650 5656 5660 5661 5664 5670 5676 5682 5687 5692 5695 5700 5702 5704 5707 5709 5711 5709 5708 5708 5708 5707 5704 5700 5694 5686 5682 5674 5668 5660 5650 5638 5627 5617 5610 5604 5599 5596 5592 5587 5579 5571 5564
5654 5656 5660 5666 5669 5675 5678 5683 5686 5692 5695 5696 5698 5703 5705 5706 5705 5705 5705 5705 5704 5703 5697 5693 5686 5683 5677 5671 5663 5653 5642 5632 5622 5612 5607 5601 5597 5594 5592 5587 5580 5573 5566
5654 5661 5664 5667 5672 5675 5679 5684 5686 5689 5692 5697 5699 5700 5701 5701 5701 5703 5704 5702 5700 5696 5693 5686 5684 5678 5671 5664 5655 5645 5636 5627 5617 5610 5604 5600 5596 5593 5590 5586 5580 5574 5568
5657 5663 5666 5669 5672 5677 5681 5684 5686 5689 5693 5694 5695 5697 5698 5699 5699 5700 5699 5696 5693 5691 5686 5684 5678 5671 5664 5658 5648 5640 5631 5621 5612 5607 5603 5600 5595 5592 5589 5585 5581 5576 5571
5653 5662 5666 5671 5674 5678 5681 5683 5686 5688 5690 5692 5693 5695 5697 5697 5696 5695 5694 5693 5690 5685 5683 5678 5672 5665 5659 5651 5643 5635 5627 5618 5612 5607 5603 5599 5595 5592 5589 5586 5582 5578 5574
5660 5663 5667 5670 5673 5676 5679 5682 5685 5687 5689 5690 5690 5692 5694 5694 5693 5693 5691 5689 5685 5682 5678 5672 5667 5660 5654 5646 5638 5630 5623 5616 5611 5606 5602 5599 5595 5591 5589 5587 5584 5580 5577
5659 5662 5666 5669 5671 5674 5678 5681 5683 5685 5686 5688 5689 5690 5691 5690 5690 5688 5687 5684 5680 5677 5672 5667 5661 5656 5648 5640 5632 5625 5619 5614 5609 5605 5602 5598 5595 5591 5589 5587 5585 5583 5580
5656 5661 5663 5666 5669 5672 5676 5678 5681 5682 5685 5686 5686 5687 5687 5687 5686 5684 5682 5679 5675 5672 5666 5662 5656 5650 5642 5634 5629 5622 5617 5612 5607 5603 5601 5597 5594 5591 5588 5587 5586 5585 5583
5653 5657 5660 5664 5668 5670 5673 5675 5677 5679 5682 5683 5683 5684 5684 5682 5681 5680 5678 5675 5672 5667 5662 5657 5651 5644 5637 5631 5626 5620 5615 5610 5606 5602 5599 5596 5593 5591 5588 5587 5587 5587 5585
5649 5653 5656 5661 5664 5667 5669 5672 5673 5676 5680 5680 5680 5681 5680 5678 5677 5675 5672 5670 5666 5661 5657 5651 5645 5639 5634 5628 5624 5617 5612 5608 5604 5600 5597 5595 5592 5590 5588 5587 5587 5587 5586